FW6550 Weather Reports


time (UTC)temp
C
wind
direction
speed
KPH
gust
KPH
rain 1hr
cm
rain 24hr
cm
rain mn
cm
humidity
%
barometer
mb
20260507113033 15 0 0.0 4.8 0.00 1.47 0.58 13 1013.1
20260507111537 15 29 0.0 3.2 0.00 1.47 0.58 13 1012.9
20260507110047 15 0 0.0 3.2 0.00 1.47 0.58 13 1012.7
20260507104533 15 0 0.0 8.0 0.00 1.47 0.58 14 1012.5
20260507103033 15 294 0.0 9.7 0.00 1.47 0.58 15 1013.0
20260507101540 15 328 1.6 8.0 0.00 1.47 0.58 14 1013.0
20260507100039 15 22 1.6 12.9 0.00 1.47 0.58 14 1012.1
20260507094538 16 347 3.2 12.9 0.00 1.47 0.58 13 1011.9
20260507093036 16 352 1.6 9.7 0.00 1.47 0.58 11 1011.4
20260507091538 17 0 3.2 12.9 0.03 1.47 0.58 10 1011.8
20260507090039 17 329 0.0 8.0 0.08 1.47 0.58 9 1011.2
20260507084538 17 313 3.2 12.9 0.13 1.47 0.58 8 1011.4
20260507083038 18 328 1.6 6.4 0.13 1.47 0.58 7 1011.3
20260507081532 18 0 0.0 8.0 0.10 1.47 0.56 6 1011.1
20260507080036 18 313 0.0 4.8 0.08 1.42 0.51 6 1011.3
20260507074543 18 0 0.0 0.0 0.10 1.37 0.46 6 1011.1
20260507073032 18 0 0.0 3.2 0.36 1.37 0.46 7 1011.5
20260507071533 18 0 0.0 12.9 0.43 1.37 0.46 7 1011.1
20260507070036 18 338 0.0 4.8 0.41 1.32 0.43 7 1011.5
20260507064538 18 0 0.0 12.9 0.33 1.27 0.36 8 1011.1
20260507063035 18 0 0.0 4.8 0.03 0.97 0.05 8 1010.3
20260507061534 18 0 0.0 1.6 0.03 0.94 0.03 8 1011.1
20260507060039 18 0 0.0 0.0 0.03 0.94 0.03 9 1011.6
20260507054532 18 0 0.0 0.0 0.03 0.94 0.03 9 1011.6
20260507053032 18 0 0.0 3.2 0.03 0.94 0.03 10 1011.7
20260507051539 18 0 0.0 6.4 0.00 0.91 0.00 11 1012.0
20260507050041 18 0 0.0 4.8 0.03 0.91 0.00 11 1011.7
20260507044534 18 0 0.0 4.8 0.05 0.91 0.91 12 1012.0
20260507043032 18 37 0.0 8.0 0.05 0.91 0.91 13 1011.9
20260507041538 19 0 0.0 3.2 0.13 0.91 0.91 14 1012.2
20260507040034 19 0 0.0 1.6 0.20 0.89 0.89 15 1012.1
20260507034550 19 0 0.0 4.8 0.30 0.86 0.86 16 1012.8
20260507033041 19 0 0.0 6.4 0.53 0.86 0.86 18 1012.7
20260507031535 19 0 0.0 1.6 0.69 0.79 0.79 22 1012.6
20260507030036 19 0 0.0 4.8 0.58 0.69 0.69 26 1012.4
20260507024548 20 0 0.0 1.6 0.48 0.56 0.56 29 1012.7
20260507023037 20 0 1.6 8.0 0.25 0.33 0.33 36 1012.6
20260507021545 20 0 3.2 12.9 0.05 0.10 0.10 45 1010.9
20260507020035 20 151 1.6 20.9 0.05 0.10 0.10 47 1011.8
20260507014540 21 23 1.6 12.9 0.03 0.08 0.08 35 1011.2
20260507013034 22 302 1.6 8.0 0.03 0.08 0.08 36 1011.6
20260507011540 22 9 0.0 12.9 0.00 0.05 0.05 30 1011.2
20260507010032 23 0 0.0 0.0 0.00 0.05 0.05 21 1011.4
20260507004531 23 0 0.0 0.0 0.03 0.05 0.05 26 1010.8
20260507003034 23 0 0.0 0.0 0.05 0.05 0.05 33 1011.1
20260507001541 23 0 0.0 1.6 0.05 0.05 0.05 40 1010.7
20260507000033 23 0 0.0 1.6 0.03 0.03 0.03 50 1011.8
20260506234532 23 0 0.0 3.2 0.03 0.03 0.03 59 1010.9
20260506233033 24 0 0.0 3.2 0.00 0.00 0.00 64 1011.5
20260506231533 24 0 0.0 3.2 0.00 0.00 0.00 68 1011.5
20260506230042 24 0 0.0 1.6 0.00 0.00 0.00 71 1011.8
20260506224534 25 0 0.0 4.8 0.00 0.00 0.00 70 1011.5
20260506223032 25 0 0.0 3.2 0.00 0.00 0.00 70 1011.2
20260506221537 25 228 0.0 3.2 0.00 0.00 0.00 61 1011.2
20260506220040 24 0 0.0 4.8 0.00 0.00 0.00 57 1011.4
20260506214531 24 0 0.0 4.8 0.00 0.00 0.00 59 1011.8
20260506213032 24 0 0.0 4.8 0.00 0.00 0.00 58 1011.9
20260506211540 24 158 0.0 4.8 0.00 0.00 0.00 47 1011.9
20260506210031 24 0 0.0 4.8 0.00 0.00 0.00 61 1012.0
20260506204533 24 0 0.0 4.8 0.00 0.00 0.00 68 1012.1
20260506203032 24 0 0.0 8.0 0.00 0.00 0.00 73 1012.4
20260506201532 25 0 1.6 14.5 0.00 0.00 0.00 78 1012.7
20260506200032 25 0 0.0 3.2 0.00 0.00 0.00 79 1012.7
20260506194538 25 0 1.6 8.0 0.00 0.00 0.00 79 1013.1
20260506193034 25 0 0.0 6.4 0.00 0.00 0.00 78 1013.4
20260506191534 25 0 0.0 9.7 0.00 0.00 0.00 78 1013.7
20260506190032 26 0 1.6 9.7 0.00 0.00 0.00 77 1013.7
20260506184531 26 0 0.0 11.3 0.00 0.00 0.00 77 1013.9
20260506183034 26 178 3.2 14.5 0.00 0.00 0.00 76 1013.8
20260506181536 27 155 1.6 8.0 0.00 0.00 0.00 73 1014.0
20260506180038 27 186 1.6 12.9 0.00 0.00 0.00 76 1013.8
20260506174534 26 165 3.2 11.3 0.00 0.00 0.00 76 1013.7
20260506173032 25 0 1.6 9.7 0.00 0.00 0.00 77 1013.8
20260506171533 25 213 1.6 8.0 0.00 0.00 0.00 78 1014.0
20260506170036 25 248 3.2 11.3 0.00 0.00 0.00 78 1014.2
20260506164532 25 263 1.6 12.9 0.00 0.00 0.00 78 1014.3
20260506163035 25 266 0.0 8.0 0.00 0.00 0.00 78 1014.4
20260506161535 25 228 0.0 6.4 0.00 0.00 0.00 77 1014.5
20260506160035 26 207 1.6 11.3 0.00 0.00 0.00 75 1014.4
20260506154539 26 0 3.2 12.9 0.00 0.00 0.00 76 1014.2
20260506153041 26 0 0.0 9.7 0.00 0.00 0.00 76 1014.1
20260506151534 26 5 0.0 9.7 0.00 0.00 0.00 75 1013.8
20260506150040 25 0 3.2 8.0 0.00 0.00 0.00 77 1013.9
20260506144552 25 180 0.0 4.8 0.00 0.00 0.00 78 1013.9
20260506143041 24 177 0.0 6.4 0.00 0.00 0.00 78 1013.9
20260506141529 24 109 1.6 6.4 0.00 0.00 0.00 78 1013.8
20260506140053 23 0 0.0 6.4 0.00 0.00 0.00 79 1013.9
20260506134536 23 0 0.0 8.0 0.00 0.00 0.00 78 1014.1
20260506133032 22 0 0.0 6.4 0.00 0.00 0.00 75 1014.1
20260506131543 21 0 1.6 9.7 0.00 0.00 0.00 73 1014.2
20260506130054 21 227 0.0 6.4 0.00 0.00 0.00 66 1014.3
20260506124534 21 0 0.0 8.0 0.00 0.00 0.00 64 1014.5
20260506123039 20 0 0.0 4.8 0.00 0.00 0.00 65 1014.5
20260506121534 20 0 0.0 6.4 0.00 0.00 0.00 65 1014.2
20260506120034 20 238 0.0 6.4 0.00 0.00 0.00 69 1013.9
20260506114533 20 193 0.0 6.4 0.00 0.00 0.00 70 1014.1